User: anonymous   Login
Location: ČR
(50.0000°N, 15.0000°E)
Time: 04:38:50
(UTC+00:00)
Language:

Hubble Space Telescope - Orbit

View from above orbital plane
View from above orbital plane
View from above satellite
View from above satellite

Ground track
Ground track

The orbit data is extracted from the following two-line orbital elements,

1 20580U 90037B   21295.36179304  .00000862  00000-0  41053-4 0  9999
2 20580  28.4707 305.2854 0002622 355.6947  24.1265 15.09791331530190
Epoch (UTC): 22 October 2021 08:40:58
Eccentricity: 0.0002622
inclination: 28.4707°
perigee height: 535 km
apogee height: 538 km
right ascension of ascending node: 305.2854°
argument of perigee: 355.6947°
revolutions per day: 15.09791331
mean anomaly at epoch: 24.1265°
orbit number at epoch: 53019

The dashed part of the orbit path shows where the satellite is in the earth's shadow,  

DLR